Time,TemperatureF,DewpointF,PressureIn,WindDirection,WindDirectionDegrees,WindSpeedMPH,WindSpeedGustMPH,Humidity,HourlyPrecipIn,Conditions,Clouds,dailyrainin,SoftwareType,DateUTC
2013-03-07 00:00:00,32.8,21.2,30.02,North,359,3.0,14.0,62,0.00,CLR,,0.00,WeatherDisplay:10.37,2013-03-07 05:00:00,
2013-03-07 00:04:00,32.7,21.1,30.02,North,350,2.0,13.0,62,0.00,CLR,,0.00,WeatherDisplay:10.37,2013-03-07 05:04:00,
2013-03-07 00:09:00,32.7,21.1,30.02,North,358,6.0,15.0,62,0.00,CLR,,0.00,WeatherDisplay:10.37,2013-03-07 05:09:00,
2013-03-07 00:14:00,32.7,21.1,30.02,NNE,17,3.0,14.0,62,0.00,CLR,,0.00,WeatherDisplay:10.37,2013-03-07 05:14:00,
2013-03-07 00:19:00,32.6,21.0,30.02,North,358,6.0,13.0,62,0.00,CLR,,0.00,WeatherDisplay:10.37,2013-03-07 05:19:00,
2013-03-07 00:29:00,32.6,21.0,30.02,NNW,337,0.0,14.0,62,0.00,CLR,,0.00,WeatherDisplay:10.37,2013-03-07 05:29:00,
2013-03-07 00:39:00,32.6,21.0,30.03,North,6,1.0,15.0,62,0.00,CLR,,0.00,WeatherDisplay:10.37,2013-03-07 05:39:00,
2013-03-07 00:49:00,32.4,21.2,30.03,North,358,1.0,10.0,63,0.00,CLR,,0.00,WeatherDisplay:10.37,2013-03-07 05:49:00,
2013-03-07 00:59:00,32.3,21.1,30.03,NNW,348,6.0,10.0,63,0.00,CLR,,0.00,WeatherDisplay:10.37,2013-03-07 05:59:00,
2013-03-07 01:04:00,32.3,21.1,30.04,North,3,3.0,7.0,63,0.00,CLR,,0.00,WeatherDisplay:10.37,2013-03-07 06:04:00,
2013-03-07 01:09:00,32.3,21.4,30.03,NNE,26,0.0,12.0,64,0.00,CLR,,0.00,WeatherDisplay:10.37,2013-03-07 06:09:00,
2013-03-07 01:14:00,32.2,21.4,30.04,North,2,1.0,10.0,64,0.00,CLR,,0.00,WeatherDisplay:10.37,2013-03-07 06:14:00,
2013-03-07 01:19:00,32.1,21.3,30.03,North,7,3.0,13.0,64,0.00,CLR,,0.00,WeatherDisplay:10.37,2013-03-07 06:19:00,
2013-03-07 01:29:00,32.1,21.6,30.03,North,6,1.0,13.0,65,0.00,CLR,,0.00,WeatherDisplay:10.37,2013-03-07 06:29:00,
2013-03-07 01:39:00,31.8,21.4,30.03,North,3,0.0,13.0,65,0.00,CLR,,0.00,WeatherDisplay:10.37,2013-03-07 06:39:00,
2013-03-07 01:44:00,31.9,21.4,30.02,North,355,3.0,14.0,65,0.00,CLR,,0.00,WeatherDisplay:10.37,2013-03-07 06:44:00,
2013-03-07 01:50:00,31.7,21.2,30.02,North,0,6.0,13.0,65,0.00,CLR,,0.00,WeatherDisplay:10.37,2013-03-07 06:50:00,
2013-03-07 02:00:00,31.5,21.5,30.02,NNW,341,7.0,13.0,66,0.00,CLR,,0.00,WeatherDisplay:10.37,2013-03-07 07:00:00,
2013-03-07 02:05:00,31.4,21.4,30.01,North,350,2.0,12.0,66,0.00,CLR,,0.00,WeatherDisplay:10.37,2013-03-07 07:05:00,
2013-03-07 02:10:00,31.3,21.6,30.01,North,349,6.0,9.0,67,0.00,CLR,,0.00,WeatherDisplay:10.37,2013-03-07 07:10:00,
2013-03-07 02:15:00,31.2,21.5,30.01,NNW,341,5.0,12.0,67,0.00,CLR,,0.00,WeatherDisplay:10.37,2013-03-07 07:15:00,
2013-03-07 02:20:00,31.2,21.5,30.01,NNW,344,6.0,10.0,67,0.00,CLR,,0.00,WeatherDisplay:10.37,2013-03-07 07:20:00,
2013-03-07 02:30:00,31.1,21.4,30.01,NNW,337,6.0,9.0,67,0.00,CLR,,0.00,WeatherDisplay:10.37,2013-03-07 07:30:00,
2013-03-07 02:40:00,31.0,21.7,30.01,North,353,1.0,12.0,68,0.00,CLR,,0.00,WeatherDisplay:10.37,2013-03-07 07:40:00,
2013-03-07 02:50:00,31.0,21.7,30.01,North,354,7.0,12.0,68,0.00,CLR,,0.00,WeatherDisplay:10.37,2013-03-07 07:50:00,
2013-03-07 03:00:00,30.9,21.6,30.00,NNW,331,6.0,11.0,68,0.00,CLR,,0.00,WeatherDisplay:10.37,2013-03-07 08:00:00,
2013-03-07 03:10:00,30.9,21.5,30.00,NNW,342,3.0,12.0,68,0.00,CLR,,0.00,WeatherDisplay:10.37,2013-03-07 08:10:00,
2013-03-07 03:20:00,30.9,21.6,30.00,North,349,7.0,12.0,68,0.00,CLR,,0.00,WeatherDisplay:10.37,2013-03-07 08:20:00,
2013-03-07 03:30:00,30.9,21.6,30.00,NNW,348,5.0,11.0,68,0.00,CLR,,0.00,WeatherDisplay:10.37,2013-03-07 08:30:00,
2013-03-07 03:40:00,30.9,21.6,30.00,North,354,6.0,9.0,68,0.00,CLR,,0.00,WeatherDisplay:10.37,2013-03-07 08:40:00,
2013-03-07 03:50:00,30.9,21.5,30.00,NNW,332,1.0,9.0,68,0.00,CLR,,0.00,WeatherDisplay:10.37,2013-03-07 08:50:00,
2013-03-07 04:00:00,30.8,21.5,30.00,North,357,6.0,10.0,68,0.00,CLR,,0.00,WeatherDisplay:10.37,2013-03-07 09:00:00,
2013-03-07 04:05:00,30.8,21.5,30.00,NNW,346,6.0,11.0,68,0.00,CLR,,0.00,WeatherDisplay:10.37,2013-03-07 09:05:00,
2013-03-07 04:10:00,30.7,21.4,30.00,NNW,344,5.0,12.0,68,0.00,CLR,,0.00,WeatherDisplay:10.37,2013-03-07 09:10:00,
2013-03-07 04:15:00,30.7,21.0,30.00,NNW,345,3.0,10.0,67,0.00,CLR,,0.00,WeatherDisplay:10.37,2013-03-07 09:15:00,
2013-03-07 04:20:00,30.7,21.0,30.00,NNW,346,7.0,17.0,67,0.00,CLR,,0.00,WeatherDisplay:10.37,2013-03-07 09:20:00,
2013-03-07 04:30:00,30.7,21.0,30.00,NNW,345,7.0,12.0,67,0.00,CLR,,0.00,WeatherDisplay:10.37,2013-03-07 09:30:00,
2013-03-07 04:40:00,30.6,21.0,30.00,NNW,346,0.0,9.0,67,0.00,CLR,,0.00,WeatherDisplay:10.37,2013-03-07 09:40:00,
2013-03-07 04:50:00,30.6,20.9,30.00,North,350,6.0,20.0,67,0.00,CLR,,0.00,WeatherDisplay:10.37,2013-03-07 09:50:00,
2013-03-07 05:00:00,30.7,21.0,30.01,NNW,336,5.0,14.0,67,0.00,CLR,,0.00,WeatherDisplay:10.37,2013-03-07 10:00:00,
2013-03-07 05:05:00,30.6,20.9,30.01,NNW,341,3.0,13.0,67,0.00,CLR,,0.00,WeatherDisplay:10.37,2013-03-07 10:05:00,
2013-03-07 05:10:00,30.6,20.9,30.00,NNW,338,0.0,8.0,67,0.00,CLR,,0.00,WeatherDisplay:10.37,2013-03-07 10:10:00,
2013-03-07 05:20:00,30.6,20.9,30.00,NW,321,0.0,9.0,67,0.00,CLR,,0.00,WeatherDisplay:10.37,2013-03-07 10:20:00,
2013-03-07 05:30:00,30.5,20.8,30.00,NNW,348,6.0,12.0,67,0.00,CLR,,0.00,WeatherDisplay:10.37,2013-03-07 10:30:00,
2013-03-07 05:40:00,30.5,20.5,30.00,NNW,345,6.0,9.0,66,0.00,CLR,,0.00,WeatherDisplay:10.37,2013-03-07 10:40:00,
2013-03-07 05:50:00,30.5,20.4,30.00,North,351,7.0,13.0,66,0.00,CLR,,0.00,WeatherDisplay:10.37,2013-03-07 10:50:00,
2013-03-07 05:55:00,30.4,20.4,30.00,NNW,348,0.0,12.0,66,0.00,CLR,,0.00,WeatherDisplay:10.37,2013-03-07 10:55:00,
2013-03-07 06:05:00,30.5,20.4,30.00,NNW,342,3.0,14.0,66,0.00,CLR,,0.00,WeatherDisplay:10.37,2013-03-07 11:05:00,
2013-03-07 06:10:00,30.5,20.5,30.01,NNW,348,5.0,13.0,66,0.00,CLR,,0.00,WeatherDisplay:10.37,2013-03-07 11:10:00,
2013-03-07 06:20:00,30.4,20.4,30.01,NNW,345,1.0,8.0,66,0.00,CLR,,0.00,WeatherDisplay:10.37,2013-03-07 11:20:00,
2013-03-07 06:30:00,30.3,20.3,30.01,NNW,347,0.0,10.0,66,0.00,CLR,,0.00,WeatherDisplay:10.37,2013-03-07 11:30:00,
2013-03-07 06:40:00,30.2,20.5,30.02,NNW,340,5.0,10.0,67,0.00,CLR,,0.00,WeatherDisplay:10.37,2013-03-07 11:40:00,
2013-03-07 06:45:00,30.2,20.5,30.02,NW,320,0.0,10.0,67,0.00,CLR,,0.00,WeatherDisplay:10.37,2013-03-07 11:45:00,
2013-03-07 06:50:00,30.2,20.5,30.02,NNW,332,0.0,12.0,67,0.00,CLR,,0.00,WeatherDisplay:10.37,2013-03-07 11:50:00,
2013-03-07 07:00:00,30.3,20.6,30.03,NNW,340,1.0,10.0,67,0.00,CLR,,0.00,WeatherDisplay:10.37,2013-03-07 12:00:00,
2013-03-07 07:10:00,30.3,21.0,30.03,NNW,344,1.0,15.0,68,0.00,CLR,,0.00,WeatherDisplay:10.37,2013-03-07 12:10:00,
2013-03-07 07:20:00,30.1,21.2,30.03,North,4,3.0,9.0,69,0.00,CLR,,0.00,WeatherDisplay:10.37,2013-03-07 12:20:00,
2013-03-07 07:25:00,30.0,21.4,30.03,NNW,339,2.0,7.0,70,0.00,CLR,,0.00,WeatherDisplay:10.37,2013-03-07 12:25:00,
2013-03-07 07:30:00,29.9,21.6,30.03,NW,326,3.0,9.0,71,0.00,CLR,,0.00,WeatherDisplay:10.37,2013-03-07 12:30:00,
2013-03-07 07:40:00,29.8,22.2,30.03,North,353,0.0,0.0,73,0.00,CLR,,0.00,WeatherDisplay:10.37,2013-03-07 12:40:00,
2013-03-07 07:45:00,29.8,22.5,30.04,NNW,343,1.0,6.0,74,0.00,CLR,,0.00,WeatherDisplay:10.37,2013-03-07 12:45:00,
2013-03-07 07:50:00,29.8,22.5,30.04,NNW,337,2.0,10.0,74,0.00,CLR,,0.00,WeatherDisplay:10.37,2013-03-07 12:50:00,
2013-03-07 08:00:00,29.8,22.8,30.04,NW,319,0.0,8.0,75,0.00,CLR,,0.00,WeatherDisplay:10.37,2013-03-07 13:00:00,
2013-03-07 08:05:00,29.9,23.2,30.03,NW,323,0.0,7.0,76,0.00,CLR,,0.00,WeatherDisplay:10.37,2013-03-07 13:05:00,
2013-03-07 08:10:00,29.9,22.9,30.03,NW,325,3.0,10.0,75,0.00,CLR,,0.00,WeatherDisplay:10.37,2013-03-07 13:10:00,
2013-03-07 08:20:00,30.0,23.0,30.03,NNW,333,2.0,9.0,75,0.00,CLR,,0.00,WeatherDisplay:10.37,2013-03-07 13:20:00,
2013-03-07 08:30:00,30.3,23.0,30.03,NNW,330,0.0,0.0,74,0.00,CLR,,0.00,WeatherDisplay:10.37,2013-03-07 13:30:00,
2013-03-07 08:40:00,30.5,22.9,30.03,North,351,6.0,13.0,73,0.00,CLR,,0.00,WeatherDisplay:10.37,2013-03-07 13:40:00,
2013-03-07 08:50:00,30.9,23.0,30.03,NNW,332,6.0,10.0,72,0.00,CLR,,0.00,WeatherDisplay:10.37,2013-03-07 13:50:00,
2013-03-07 09:00:00,31.2,22.9,30.03,North,355,2.0,14.0,71,0.00,CLR,,0.00,WeatherDisplay:10.37,2013-03-07 14:00:00,
2013-03-07 09:05:00,31.3,23.0,30.02,NNW,333,1.0,10.0,71,0.00,CLR,,0.00,WeatherDisplay:10.37,2013-03-07 14:05:00,
2013-03-07 09:10:00,31.5,22.8,30.02,WNW,285,3.0,8.0,70,0.00,CLR,,0.00,WeatherDisplay:10.37,2013-03-07 14:10:00,
2013-03-07 09:20:00,31.8,22.8,30.02,NNW,348,3.0,10.0,69,0.00,CLR,,0.00,WeatherDisplay:10.37,2013-03-07 14:20:00,
2013-03-07 09:30:00,32.3,23.2,30.02,NNW,336,2.0,12.0,69,0.00,CLR,,0.00,WeatherDisplay:10.37,2013-03-07 14:30:00,
2013-03-07 09:40:00,32.8,23.4,30.02,North,354,3.0,10.0,68,0.00,CLR,,0.00,WeatherDisplay:10.37,2013-03-07 14:40:00,
2013-03-07 09:50:00,33.3,23.5,30.02,NNE,19,2.0,8.0,67,0.00,CLR,,0.00,WeatherDisplay:10.37,2013-03-07 14:50:00,
2013-03-07 10:00:00,33.0,22.1,30.02,North,357,6.0,15.0,64,0.00,CLR,,0.00,WeatherDisplay:10.37,2013-03-07 15:00:00,
2013-03-07 10:05:00,33.0,22.5,30.01,NNW,341,5.0,12.0,65,0.00,CLR,,0.00,WeatherDisplay:10.37,2013-03-07 15:05:00,
2013-03-07 10:15:00,33.1,21.8,30.01,NW,306,5.0,12.0,63,0.00,CLR,,0.00,WeatherDisplay:10.37,2013-03-07 15:15:00,
2013-03-07 10:20:00,33.3,22.1,30.02,NW,324,3.0,10.0,63,0.00,CLR,,0.00,WeatherDisplay:10.37,2013-03-07 15:20:00,
2013-03-07 10:25:00,33.5,21.8,30.02,North,358,1.0,14.0,62,0.00,CLR,,0.00,WeatherDisplay:10.37,2013-03-07 15:25:00,
2013-03-07 10:30:00,33.6,21.6,30.02,NNW,342,6.0,15.0,61,0.00,CLR,,0.00,WeatherDisplay:10.37,2013-03-07 15:30:00,
2013-03-07 10:40:00,33.7,21.3,30.02,NNW,348,0.0,14.0,60,0.00,CLR,,0.00,WeatherDisplay:10.37,2013-03-07 15:40:00,
2013-03-07 10:50:00,33.7,20.9,30.01,NNW,329,1.0,12.0,59,0.00,CLR,,0.00,WeatherDisplay:10.37,2013-03-07 15:50:00,
2013-03-07 11:00:00,34.3,21.0,30.01,NNW,332,0.0,12.0,58,0.00,CLR,,0.00,WeatherDisplay:10.37,2013-03-07 16:00:00,
2013-03-07 11:05:00,34.5,21.2,30.01,North,7,2.0,10.0,58,0.00,CLR,,0.00,WeatherDisplay:10.37,2013-03-07 16:05:00,
2013-03-07 11:10:00,34.6,21.3,30.02,North,353,1.0,9.0,58,0.00,CLR,,0.00,WeatherDisplay:10.37,2013-03-07 16:10:00,
2013-03-07 11:20:00,35.1,21.4,30.01,North,1,1.0,6.0,57,0.00,CLR,,0.00,WeatherDisplay:10.37,2013-03-07 16:20:00,
2013-03-07 11:30:00,35.5,21.3,30.01,WNW,297,1.0,7.0,56,0.00,CLR,,0.00,WeatherDisplay:10.37,2013-03-07 16:30:00,
2013-03-07 11:40:00,35.7,21.1,30.01,North,353,0.0,15.0,55,0.00,CLR,,0.00,WeatherDisplay:10.37,2013-03-07 16:40:00,
2013-03-07 11:50:00,35.9,21.3,30.02,North,3,0.0,3.0,55,0.00,CLR,,0.00,WeatherDisplay:10.37,2013-03-07 16:50:00,
2013-03-07 12:00:00,35.9,20.8,30.02,WNW,298,0.0,15.0,54,0.00,CLR,,0.00,WeatherDisplay:10.37,2013-03-07 17:00:00,
2013-03-07 12:05:00,35.7,20.7,30.02,WNW,296,0.0,12.0,54,0.00,CLR,,0.00,WeatherDisplay:10.37,2013-03-07 17:05:00,
2013-03-07 12:10:00,35.7,20.6,30.02,West,279,0.0,16.0,54,0.00,CLR,,0.00,WeatherDisplay:10.37,2013-03-07 17:10:00,
2013-03-07 12:20:00,35.8,20.7,30.02,NNW,347,1.0,8.0,54,0.00,CLR,,0.00,WeatherDisplay:10.37,2013-03-07 17:20:00,
2013-03-07 12:25:00,35.8,20.7,30.02,NW,320,1.0,7.0,54,0.00,CLR,,0.00,WeatherDisplay:10.37,2013-03-07 17:25:00,
2013-03-07 12:30:00,35.7,20.6,30.01,NNW,348,0.0,14.0,54,0.00,CLR,,0.00,WeatherDisplay:10.37,2013-03-07 17:30:00,
2013-03-07 12:40:00,35.1,21.0,30.01,NNW,340,0.0,12.0,56,0.00,CLR,,0.00,WeatherDisplay:10.37,2013-03-07 17:40:00,
2013-03-07 12:45:00,35.2,21.4,30.01,North,4,0.0,3.0,57,0.00,CLR,,0.00,WeatherDisplay:10.37,2013-03-07 17:45:00,
2013-03-07 12:50:00,35.2,21.5,30.01,North,355,5.0,14.0,57,0.00,CLR,,0.00,WeatherDisplay:10.37,2013-03-07 17:50:00,
2013-03-07 12:55:00,35.1,21.8,30.01,NNW,347,0.0,2.0,58,0.00,CLR,,0.00,WeatherDisplay:10.37,2013-03-07 17:55:00,
2013-03-07 13:05:00,35.1,22.2,30.01,North,352,1.0,11.0,59,0.00,CLR,,0.00,WeatherDisplay:10.37,2013-03-07 18:05:00,
2013-03-07 13:10:00,35.0,22.1,30.00,NW,312,5.0,15.0,59,0.00,CLR,,0.00,WeatherDisplay:10.37,2013-03-07 18:10:00,
2013-03-07 13:20:00,35.2,22.7,30.00,NNW,337,1.0,10.0,60,0.00,CLR,,0.00,WeatherDisplay:10.37,2013-03-07 18:20:00,
2013-03-07 13:30:00,35.5,23.0,30.00,NW,316,0.0,12.0,60,0.00,CLR,,0.00,WeatherDisplay:10.37,2013-03-07 18:30:00,
2013-03-07 13:40:00,35.6,23.1,30.00,NW,323,0.0,13.0,60,0.00,CLR,,0.00,WeatherDisplay:10.37,2013-03-07 18:40:00,
2013-03-07 13:50:00,35.7,23.5,30.00,NNW,327,5.0,14.0,61,0.00,CLR,,0.00,WeatherDisplay:10.37,2013-03-07 18:50:00,
2013-03-07 14:00:00,35.3,23.2,30.01,NW,322,6.0,14.0,61,0.00,CLR,,0.00,WeatherDisplay:10.37,2013-03-07 19:00:00,
2013-03-07 14:05:00,35.2,23.5,30.00,WNW,298,0.0,13.0,62,0.00,CLR,,0.00,WeatherDisplay:10.37,2013-03-07 19:05:00,
2013-03-07 14:10:00,35.1,23.3,30.00,NNW,345,6.0,11.0,62,0.00,CLR,,0.00,WeatherDisplay:10.37,2013-03-07 19:10:00,
2013-03-07 14:20:00,34.9,23.5,30.00,NNW,331,5.0,9.0,63,0.00,CLR,,0.00,WeatherDisplay:10.37,2013-03-07 19:20:00,
2013-03-07 14:30:00,34.8,23.5,30.00,North,350,5.0,10.0,63,0.00,CLR,,0.00,WeatherDisplay:10.37,2013-03-07 19:30:00,
2013-03-07 14:40:00,35.1,23.8,30.00,NW,307,0.0,7.0,63,0.00,CLR,,0.00,WeatherDisplay:10.37,2013-03-07 19:40:00,
2013-03-07 14:45:00,35.2,23.8,30.00,NNW,327,1.0,10.0,63,0.00,CLR,,0.00,WeatherDisplay:10.37,2013-03-07 19:45:00,
2013-03-07 14:55:00,35.2,23.8,30.00,North,358,6.0,9.0,63,0.00,CLR,,0.00,WeatherDisplay:10.37,2013-03-07 19:55:00,
2013-03-07 15:05:00,34.7,23.8,30.00,NW,312,0.0,8.0,64,0.00,CLR,,0.00,WeatherDisplay:10.37,2013-03-07 20:05:00,
2013-03-07 15:10:00,34.5,24.0,30.01,NW,308,6.0,13.0,65,0.00,CLR,,0.00,WeatherDisplay:10.37,2013-03-07 20:10:00,
2013-03-07 15:20:00,33.9,23.7,30.01,NNW,337,6.0,11.0,66,0.00,CLR,,0.00,WeatherDisplay:10.37,2013-03-07 20:20:00,
2013-03-07 15:30:00,33.9,24.1,30.01,NW,314,1.0,8.0,67,0.00,CLR,,0.00,WeatherDisplay:10.37,2013-03-07 20:30:00,
2013-03-07 15:40:00,34.1,24.3,30.01,NW,318,1.0,7.0,67,0.00,CLR,,0.00,WeatherDisplay:10.37,2013-03-07 20:40:00,
2013-03-07 15:50:00,34.2,24.3,30.01,NNW,327,0.0,3.0,67,0.00,CLR,,0.00,WeatherDisplay:10.37,2013-03-07 20:50:00,
2013-03-07 16:00:00,34.3,24.1,30.01,NW,315,1.0,5.0,66,0.00,CLR,,0.00,WeatherDisplay:10.37,2013-03-07 21:00:00,
2013-03-07 16:05:00,34.4,24.2,30.01,NW,315,0.0,9.0,66,0.00,CLR,,0.00,WeatherDisplay:10.37,2013-03-07 21:05:00,
2013-03-07 16:10:00,34.3,24.1,30.01,NNW,329,0.0,6.0,66,0.00,CLR,,0.00,WeatherDisplay:10.37,2013-03-07 21:10:00,
2013-03-07 16:20:00,34.1,24.3,30.01,NNW,343,0.0,12.0,67,0.00,CLR,,0.00,WeatherDisplay:10.37,2013-03-07 21:20:00,
2013-03-07 16:25:00,34.0,24.2,30.01,NNW,332,0.0,0.0,67,0.00,CLR,,0.00,WeatherDisplay:10.37,2013-03-07 21:25:00,
2013-03-07 16:30:00,33.9,24.4,30.02,NW,322,0.0,6.0,68,0.00,CLR,,0.00,WeatherDisplay:10.37,2013-03-07 21:30:00,
2013-03-07 16:35:00,33.9,24.8,30.01,NW,319,0.0,0.0,69,0.00,CLR,,0.00,WeatherDisplay:10.37,2013-03-07 21:35:00,
2013-03-07 16:40:00,33.9,24.8,30.01,NW,320,0.0,3.0,69,0.00,CLR,,0.00,WeatherDisplay:10.37,2013-03-07 21:40:00,
2013-03-07 16:50:00,33.6,24.8,30.01,NNW,332,3.0,7.0,70,0.00,CLR,,0.00,WeatherDisplay:10.37,2013-03-07 21:50:00,
2013-03-07 17:00:00,33.6,25.5,30.01,NNW,332,0.0,0.0,72,0.00,CLR,,0.00,WeatherDisplay:10.37,2013-03-07 22:00:00,
2013-03-07 17:10:00,33.5,25.4,30.01,NNW,345,3.0,10.0,72,0.00,CLR,,0.00,WeatherDisplay:10.37,2013-03-07 22:10:00,
2013-03-07 17:20:00,33.4,25.7,30.01,NW,305,5.0,7.0,73,0.00,CLR,,0.00,WeatherDisplay:10.37,2013-03-07 22:20:00,
2013-03-07 17:30:00,33.2,25.8,30.02,North,1,3.0,11.0,74,0.00,CLR,,0.00,WeatherDisplay:10.37,2013-03-07 22:30:00,
2013-03-07 17:40:00,33.2,25.8,30.02,NNW,333,0.0,0.0,74,0.00,CLR,,0.00,WeatherDisplay:10.37,2013-03-07 22:40:00,
2013-03-07 17:50:00,33.1,26.0,30.02,NW,311,0.0,0.0,75,0.00,CLR,,0.00,WeatherDisplay:10.37,2013-03-07 22:50:00,
2013-03-07 18:00:00,33.1,26.3,30.02,NW,309,0.0,0.0,76,0.00,CLR,,0.00,WeatherDisplay:10.37,2013-03-07 23:00:00,
2013-03-07 18:05:00,33.0,26.3,30.02,NW,309,0.0,0.0,76,0.00,CLR,,0.00,WeatherDisplay:10.37,2013-03-07 23:05:00,
2013-03-07 18:10:00,33.0,26.2,30.02,NW,309,0.0,0.0,76,0.00,CLR,,0.00,WeatherDisplay:10.37,2013-03-07 23:10:00,
2013-03-07 18:20:00,32.9,26.5,30.02,NW,309,0.0,0.0,77,0.00,CLR,,0.00,WeatherDisplay:10.37,2013-03-07 23:20:00,
2013-03-07 18:30:00,32.7,26.6,30.02,NW,309,0.0,0.0,78,0.00,CLR,,0.00,WeatherDisplay:10.37,2013-03-07 23:30:00,
2013-03-07 18:35:00,32.7,26.6,30.02,NW,309,0.0,0.0,78,0.00,CLR,,0.00,WeatherDisplay:10.37,2013-03-07 23:35:00,
2013-03-07 18:40:00,32.6,26.8,30.02,NW,309,0.0,0.0,79,0.00,CLR,,0.00,WeatherDisplay:10.37,2013-03-07 23:40:00,
2013-03-07 18:50:00,32.6,27.1,30.02,NW,309,0.0,0.0,80,0.00,CLR,,0.00,WeatherDisplay:10.37,2013-03-07 23:50:00,
2013-03-07 19:00:00,32.6,27.1,30.02,NW,309,0.0,0.0,80,0.00,CLR,,0.00,WeatherDisplay:10.37,2013-03-08 00:00:00,
2013-03-07 19:05:00,32.6,27.1,30.02,NW,309,0.0,0.0,80,0.01,RA,,0.01,WeatherDisplay:10.37,2013-03-08 00:05:00,
2013-03-07 19:10:00,32.6,27.4,30.02,NW,309,0.0,0.0,81,0.01,RA,,0.01,WeatherDisplay:10.37,2013-03-08 00:10:00,
2013-03-07 19:20:00,32.8,27.6,30.02,NW,309,0.0,0.0,81,0.01,CLR,,0.01,WeatherDisplay:10.37,2013-03-08 00:20:00,
2013-03-07 19:30:00,32.8,27.6,30.02,NW,309,0.0,0.0,81,0.01,CLR,,0.01,WeatherDisplay:10.37,2013-03-08 00:30:00,
2013-03-07 19:40:00,32.9,27.7,30.02,NW,309,0.0,0.0,81,0.01,CLR,,0.01,WeatherDisplay:10.37,2013-03-08 00:40:00,
2013-03-07 19:45:00,32.9,27.7,30.02,NW,309,0.0,0.0,81,0.01,CLR,,0.01,WeatherDisplay:10.37,2013-03-08 00:45:00,
2013-03-07 19:50:00,32.9,27.7,30.02,NW,309,0.0,0.0,81,0.01,CLR,,0.01,WeatherDisplay:10.37,2013-03-08 00:50:00,
2013-03-07 19:55:00,32.7,27.5,30.02,NW,309,0.0,0.0,81,0.01,CLR,,0.01,WeatherDisplay:10.37,2013-03-08 00:55:00,
2013-03-07 20:00:00,32.6,27.4,30.02,WNW,290,0.0,9.0,81,0.01,CLR,,0.01,WeatherDisplay:10.37,2013-03-08 01:00:00,
2013-03-07 20:05:00,32.6,27.1,30.01,WNW,290,0.0,0.0,80,0.00,CLR,,0.01,WeatherDisplay:10.37,2013-03-08 01:05:00,
2013-03-07 20:10:00,32.5,27.0,30.01,NW,319,0.0,10.0,80,0.00,CLR,,0.01,WeatherDisplay:10.37,2013-03-08 01:10:00,
2013-03-07 20:20:00,32.5,26.7,30.01,NNW,342,0.0,6.0,79,0.00,CLR,,0.01,WeatherDisplay:10.37,2013-03-08 01:20:00,
2013-03-07 20:30:00,32.4,26.3,30.01,WNW,297,0.0,6.0,78,0.00,CLR,,0.01,WeatherDisplay:10.37,2013-03-08 01:30:00,
2013-03-07 20:36:00,32.4,26.3,30.01,WNW,296,0.0,3.0,78,0.00,CLR,,0.01,WeatherDisplay:10.37,2013-03-08 01:36:00,
2013-03-07 20:45:00,32.4,26.0,30.01,North,351,0.0,7.0,77,0.00,CLR,,0.01,WeatherDisplay:10.37,2013-03-08 01:45:00,
2013-03-07 20:50:00,32.4,26.0,30.01,NW,317,0.0,6.0,77,0.00,CLR,,0.01,WeatherDisplay:10.37,2013-03-08 01:50:00,
2013-03-07 20:55:00,32.4,25.7,30.01,WNW,299,0.0,7.0,76,0.00,CLR,,0.01,WeatherDisplay:10.37,2013-03-08 01:55:00,
2013-03-07 21:05:00,32.4,25.4,30.01,NW,316,0.0,0.0,75,0.00,CLR,,0.01,WeatherDisplay:10.37,2013-03-08 02:05:00,
2013-03-07 21:10:00,32.4,25.4,30.00,West,279,0.0,8.0,75,0.00,CLR,,0.01,WeatherDisplay:10.37,2013-03-08 02:10:00,
2013-03-07 21:20:00,32.4,25.0,30.00,West,274,0.0,10.0,74,0.00,CLR,,0.01,WeatherDisplay:10.37,2013-03-08 02:20:00,
2013-03-07 21:30:00,32.3,24.9,30.00,NW,315,0.0,9.0,74,0.00,CLR,,0.01,WeatherDisplay:10.37,2013-03-08 02:30:00,
2013-03-07 21:40:00,32.2,25.2,30.00,NW,305,1.0,7.0,75,0.00,CLR,,0.01,WeatherDisplay:10.37,2013-03-08 02:40:00,
2013-03-07 21:50:00,32.1,25.3,30.00,WNW,302,0.0,8.0,76,0.00,CLR,,0.01,WeatherDisplay:10.37,2013-03-08 02:50:00,
2013-03-07 22:00:00,32.0,25.3,30.00,WSW,246,0.0,3.0,76,0.00,CLR,,0.01,WeatherDisplay:10.37,2013-03-08 03:00:00,
2013-03-07 22:10:00,31.9,25.2,29.99,WNW,295,3.0,7.0,76,0.00,CLR,,0.01,WeatherDisplay:10.37,2013-03-08 03:10:00,
2013-03-07 22:15:00,31.8,25.1,29.99,NW,314,1.0,13.0,76,0.00,CLR,,0.01,WeatherDisplay:10.37,2013-03-08 03:15:00,
2013-03-07 22:20:00,31.8,25.1,29.99,NW,325,2.0,9.0,76,0.00,CLR,,0.01,WeatherDisplay:10.37,2013-03-08 03:20:00,
2013-03-07 22:30:00,31.8,24.8,29.99,WNW,301,1.0,7.0,75,0.00,CLR,,0.01,WeatherDisplay:10.37,2013-03-08 03:30:00,
2013-03-07 22:35:00,31.8,24.8,29.99,NW,306,0.0,7.0,75,0.00,CLR,,0.01,WeatherDisplay:10.37,2013-03-08 03:35:00,
2013-03-07 22:40:00,31.9,24.9,29.99,NNW,336,0.0,0.0,75,0.00,CLR,,0.01,WeatherDisplay:10.37,2013-03-08 03:40:00,
2013-03-07 22:45:00,31.9,24.9,29.99,NW,323,1.0,8.0,75,0.00,CLR,,0.01,WeatherDisplay:10.37,2013-03-08 03:45:00,
2013-03-07 22:50:00,31.9,24.9,29.98,North,356,0.0,8.0,75,0.00,CLR,,0.01,WeatherDisplay:10.37,2013-03-08 03:50:00,
2013-03-07 23:00:00,31.9,24.5,29.98,North,358,0.0,5.0,74,0.00,CLR,,0.01,WeatherDisplay:10.37,2013-03-08 04:00:00,
2013-03-07 23:05:00,31.8,24.5,29.98,North,359,0.0,8.0,74,0.00,CLR,,0.01,WeatherDisplay:10.37,2013-03-08 04:05:00,
2013-03-07 23:10:00,31.8,24.5,29.98,NW,320,0.0,10.0,74,0.00,CLR,,0.01,WeatherDisplay:10.37,2013-03-08 04:10:00,
2013-03-07 23:20:00,31.6,24.6,29.98,NW,311,0.0,0.0,75,0.00,CLR,,0.01,WeatherDisplay:10.37,2013-03-08 04:20:00,
2013-03-07 23:30:00,31.4,24.7,29.98,NW,316,0.0,11.0,76,0.00,CLR,,0.01,WeatherDisplay:10.37,2013-03-08 04:30:00,
2013-03-07 23:40:00,31.3,24.6,29.98,NW,314,1.0,10.0,76,0.00,CLR,,0.01,WeatherDisplay:10.37,2013-03-08 04:40:00,
2013-03-07 23:50:00,31.2,24.5,29.98,NW,318,1.0,9.0,76,0.00,CLR,,0.01,WeatherDisplay:10.37,2013-03-08 04:50:00,
2013-03-07 23:55:00,31.2,24.8,29.98,West,267,0.0,7.0,77,0.00,CLR,,0.01,WeatherDisplay:10.37,2013-03-08 04:55:00,